Location: Invercargill
(46.4000°S, 168.3500°E)
Time: 10:05:32
(UTC+12:00)

SJ 16-02 - Pass Details

Date: 14 May 2021
Orbit: 606 x 616 km, 75.0° (Epoch: 15 June)

Event Time Altitude Azimuth Distance (km) Brightness Sun altitude
Rises 20:38:13 0° 212° (SSW) 2,911 5.3 -33.2°
Reaches altitude 10° 20:40:46 10° 224° (SW) 1,999 4.5 -33.6°
Enters shadow 20:43:33 24° 260° (W) 1,309 3.6 -34.1°
